Regional Weather Roundup
Issued by NWS

Home | Current Version | Previous Version | Text Only | Print | Product List | Glossary On
Versions: 1 2 3 4 5 6 7 8 9 10 11 12 13 14 15 16 17 18 19 20 21 22 23 24 25 26 27 28 29 30 31 32 33 34 35 36 37 38 39 40 41 42 43 44 45 46 47 48 49 50
000
ASUS43 KMPX 232301
RWRMN
WEATHER ROUNDUP FOR MINNESOTA
NATIONAL WEATHER SERVICE TWIN CITIES/CHANHASSEN MN
600 PM CDT THU MAR 23 2017


NOTE: "FAIR" INDICATES FEW OR NO CLOUDS BELOW 12,000 FEET WITH NO
SIGNIFICANT WEATHER AND/OR OBSTRUCTIONS TO VISIBILITY. N/A MEANS
CURRENT SKY AND/OR WEATHER CONDITIONS ARE NOT AVAILABLE.

MNZ060>063-068>070-240000-
   Twin Cities Metro

CITY           SKY/WX    TMP DP  RH WIND       PRES   REMARKS
TWIN CITIES    LGT RAIN  39  33  79 E17       29.79F
ST PAUL        CLOUDY    39  33  79 SE15G24   29.84F
CRYSTAL        MIX PCPN  37  33  85 SE14      29.79F FOG
BLAINE         LGT RAIN  41  34  75 S13G21    29.85F FOG
LAKEVILLE      CLOUDY    36  36 100 SE12      29.84F
EDEN PRAIRIE   LGT RAIN  38  34  85 SE9       29.84F FOG
SOUTH ST PAUL  CLOUDY    39  33  77 SE8G18    29.83F
LAKE ELMO      CLOUDY    39  32  75 SE14G25   29.87F
$$
MNZ001>005-007-008-013>017-022>024-027-028-240000-
   Northwest Minnesota

CITY           SKY/WX    TMP DP  RH WIND       PRES   REMARKS
BEMIDJI        RAIN      35  32  89 SE8       29.79F WCI  28
HALLOCK        CLOUDY    36  34  93 S7        29.80R
ROSEAU         CLOUDY    37  34  87 SW5       29.79R
WARROAD        CLOUDY    37  34  87 SW5       29.79S
THIEF RVR FALL CLOUDY   N/A N/A N/A S5        29.81R
CROOKSTON      MIX PCPN  36  36 100 S9        29.80R
FOSSTON        CLOUDY    36  30  80 S10       29.82R
DETROIT LAKES  RAIN      34  34 100 SE7       29.83R WCI  28
MOORHEAD       DRIZZLE   36  34  93 SE5       29.82R
PARK RAPIDS    TSTM      36  29  75 SW12      29.84R
MAHNOMEN       TSTM      34  33  94 S6        29.80R WCI  29
$$
MNZ006-009>011-018-025>026-240000-
   North Central Minnesota

CITY           SKY/WX    TMP DP  RH WIND       PRES   REMARKS
BAUDETTE       CLOUDY    34  32  92 SE9       29.76F WCI  27
FLAG ISLAND    CLOUDY    34  30  86 S9        29.77F WCI  26
INTL FALLS     LGT RAIN  34  31  88 S3        29.83S FOG
WASKISH        LGT RAIN  36  34  93 SE7       29.77F
BIG FORK       RAIN      34  30  86 S3        29.84S
LONGVILLE      CLOUDY    36  27  69 SE3       29.82S
GRAND RAPIDS   LGT SNOW  33  31  92 SE5       29.87S FOG     WCI  29
CRANE LAKE     LGT SNOW  30  30 100 S6        29.87F WCI  24
ORR            LGT RAIN  32  28  86 CALM      29.83F
COOK           LGT SNOW  32  30  93 SE3       29.86F
WALKER         LGT RAIN  33  31  91 CALM      29.81F
$$
MNZ012-019>021-037-240000-
   Northeast Minnesota

CITY           SKY/WX    TMP DP  RH WIND       PRES   REMARKS
DULUTH         LGT RAIN  34  27  75 SE9       29.88F WCI  27
ELY            LGT SNOW  30  30 100 S5        29.87F WCI  25
HIBBING        CLOUDY    32  30  92 SE7       29.85F WCI  26
EVELETH        CLOUDY    32  29  89 CALM      29.88S
DULUTH HARBOR  CLOUDY    37  28  70 CALM      29.92F
TWO HARBORS    CLOUDY    37  30  75 SE3       29.90S
SILVER BAY     CLOUDY    34  30  86 E3        29.90F
GRAND MARAIS     N/A     33  31  92 SW3       29.96F
G MARAIS ARPRT MIX PCPN  27  23  86 S6        29.90F WCI  20
$$
MNZ029>031-032-039>041-046>048-054>057-064-240000-
   West Central Minnesota

CITY           SKY/WX    TMP DP  RH WIND       PRES   REMARKS
FERGUS FALLS   CLOUDY    36  36 100 SE9       29.84R FOG
WHEATON        CLOUDY    36  36 100 E14       29.78F FOG
MORRIS         CLOUDY    37  36  93 SE15      29.75F FOG
ALEXANDRIA     CLOUDY    34  33  96 SE12      29.79F FOG     WCI  25
ELBOW LAKE     CLOUDY    34  34  99 SE7       29.78F FOG     WCI  28
WADENA         MIX PCPN  34  32  93 SE8       29.81S WCI  27
GLENWOOD       DRIZZLE   36  34  93 SE13      29.79F
APPLETON       CLOUDY    37  36  93 E12       29.76F FOG
BENSON         LGT RAIN  37  34  87 SE10      29.79F
ORTONVILLE     DRIZZLE   36  34  93 SE12      29.74F
MADISON        DRIZZLE   39  39 100 SE10      29.75F
WILLMAR        LGT RAIN  36  36 100 SE13      29.80F
$$
MNZ033>034-036-042>043-049>051-058-059-240000-
   Central Minnesota

CITY           SKY/WX    TMP DP  RH WIND       PRES   REMARKS
ST CLOUD       LGT RAIN  35  35 100 E5        29.82F FOG     WCI  31
SAUK CENTRE    CLOUDY    33  32  96 E9        29.79F FOG     WCI  25
PAYNESVILLE    DRIZZLE   35  35 100 SE9       29.81F WCI  27
AITKIN         CLOUDY    39  25  56 SE8       29.82F
PINE RIVER     CLOUDY    36  28  75 S10G16    29.87R
BRAINERD       LGT RAIN  37  26  64 SE10      29.84S
STAPLES        CLOUDY    34  32  93 CALM      29.83S FOG
LONG PRAIRIE   MIX PCPN  32  32 100 E7        29.81F WCI  26
LITTLE FALLS   MIX PCPN  34  32  93 SE8       29.84F WCI  27
LITCHFIELD     RAIN      36  36 100 SE8       29.82F
BUFFALO        LGT RAIN  36  33  90 SE7       29.84F
MAPLE LAKE     RAIN      37  35  95 SE6       29.82F
HUTCHINSON     CLOUDY    36  35  96 SE12      29.82R
$$
MNZ037-044-045-052-053-240000-
   East Central Minnesota

CITY           SKY/WX    TMP DP  RH WIND       PRES   REMARKS
PRINCETON      DRIZZLE   37  34  87 CALM      29.86F
MORA           PTSUNNY   34  30  86 CALM      29.89F
CAMBRIDGE      CLOUDY    39  30  70 SE3       29.85R
RUSH CITY      CLOUDY    36  31  83 CALM      29.87F
MOOSE LAKE     LGT RAIN  36  28  75 CALM      29.85F
HINCKLEY       LGT RAIN  36  32  87 SE5       29.86F
CLOQUET        LGT SNOW  34  27  75 S6        29.87F WCI  29
MCGREGOR       CLOUDY    34  30  86 SE8       29.84F WCI  27
$$
MNZ071>073-080-081-089-090-097-098-240000-
   Southwest Minnesota

CITY           SKY/WX    TMP DP  RH WIND       PRES   REMARKS
MONTEVIDEO     RAIN      37  37 100 S13       29.79S
GRANITE FALLS  CLOUDY    39  37  93 E13       29.78F FOG
CANBY          CLOUDY    40  39  97 CALM      29.75S FOG
MARSHALL       CLOUDY    38  37  97 SE13      29.75F
REDWOOD FALLS  CLOUDY    38  34  85 SE14      29.77F FOG
OLIVIA         CLOUDY    36  34  93 SE12      29.78F FOG
PIPESTONE      DRIZZLE   43  36  75 SE8       29.70S
WINDOM         CLOUDY    41  34  75 E10       29.73F
WORTHINGTON    CLOUDY    43  35  73 SE13      29.73R
JACKSON        CLOUDY    43  34  70 SE15      29.73F
TRACY          CLOUDY    40  37  87 SE7       29.74F
SLAYTON        CLOUDY    40  36  86 SE9       29.73S
$$
MNZ065>067-074>077-082>085-091>093-240000-
   South Central Minnesota

CITY           SKY/WX    TMP DP  RH WIND       PRES   REMARKS
MANKATO        CLOUDY    37  34  89 E9        29.82R
NEW ULM        CLOUDY    37  32  81 SE12      29.79F
ST JAMES       CLOUDY    39  36  87 SE13      29.77F
FAIRMONT       CLOUDY    41  35  79 SE14G28   29.77S
GLENCOE        CLOUDY    37  36  97 SE9       29.83R
FARIBAULT      CLOUDY    37  36  93 E10       29.84F
OWATONNA       CLOUDY    37  36  93 SE12G21   29.82R
WASECA         CLOUDY    36  34  93 SE10G21   29.82F
ALBERT LEA     CLOUDY    37  36  93 SE15G23   29.77F
$$
MNZ078>079-086>088-094>096-240000-
   Southeast Minnesota

CITY           SKY/WX    TMP DP  RH WIND       PRES   REMARKS
ROCHESTER      CLOUDY    37  36  96 SE20      29.85F
RED WING       CLOUDY    41  28  60 SE15G25   29.85F
STANTON        CLOUDY    40  34  80 SE10G17   29.83F
DODGE CENTER   CLOUDY    37  36  93 SE17G23   29.82F FOG
WINONA         TSTM      37  34  87 S6        29.96R
AUSTIN         CLOUDY    37  36  93 SE14      29.82F
PRESTON        CLOUDY    36  34  92 SE20G25   29.84F
$$
ABBREVIATIONS USED IN REMARKS
   TC - TEMPERATURES IN CELSIUS
  WCI - WIND CHILL INDEX
   HX - HEAT INDEX
  VSB - VISIBILITY
$$




USA.gov is the U.S. government's official web portal to all federal, state and local government web resources and services.